Previsão horária em Abella de la Conca

Hoje, 20 Janeiro, Quarta-feira

Tempo Temperatura Precipitação Vento Pressão Humidade
00:00 -1°C° 0 mm 1 m/s 652 mmHg 69%
01:00 -1°C° 0 mm 1 m/s 651 mmHg 69%
02:00 -1°C° 0 mm 1 m/s 651 mmHg 69%
03:00 -1°C° 0 mm 1 m/s 650 mmHg 69%
04:00 -1°C° 0 mm 1 m/s 650 mmHg 68%
05:00 -1°C° 0 mm 1 m/s 650 mmHg 68%
06:00 -1°C° 0 mm 1 m/s 649 mmHg 67%
07:00 +1°C° 0 mm 1 m/s 649 mmHg 66%
08:00 +2°C° 0 mm 1 m/s 649 mmHg 64%
09:00 +3°C° 0 mm 1 m/s 650 mmHg 63%
10:00 +4°C° 0 mm 1 m/s 650 mmHg 62%
11:00 +5°C° 0 mm 1 m/s 650 mmHg 61%
12:00 +5°C° 0 mm 2 m/s 650 mmHg 60%
13:00 +4°C° 0.1 mm 2 m/s 649 mmHg 65%
14:00 +4°C° 0.1 mm 2 m/s 648 mmHg 70%
15:00 +4°C° 0.1 mm 1 m/s 647 mmHg 76%
16:00 +3°C° 0.2 mm 1 m/s 647 mmHg 81%
17:00 +2°C° 0.2 mm 1 m/s 646 mmHg 86%
18:00 +2°C° 0.2 mm 1 m/s 646 mmHg 91%
19:00 +2°C° 0.1 mm 1 m/s 646 mmHg 91%
20:00 +2°C° 0.1 mm 1 m/s 646 mmHg 91%
21:00 +2°C° 0.1 mm 1 m/s 646 mmHg 91%
22:00 +2°C° 0.5 mm 1 m/s 647 mmHg 93%
23:00 +1°C° 0.5 mm 0 m/s 647 mmHg 94%

Amanhã, 21 Janeiro, Quinta-feira

Tempo Temperatura Precipitação Vento Pressão Humidade
00:00 +1°C° 0.5 mm 0 m/s 647 mmHg 96%
01:00 +1°C° 0.4 mm 0 m/s 647 mmHg 96%
02:00 +1°C° 0.4 mm 0 m/s 647 mmHg 96%
03:00 +1°C° 0.4 mm 0 m/s 647 mmHg 97%
04:00 +1°C° 0 mm 0 m/s 647 mmHg 97%
05:00 +1°C° 0 mm 0 m/s 647 mmHg 96%
06:00 +1°C° 0 mm 0 m/s 647 mmHg 96%
07:00 +3°C° 0 mm 1 m/s 648 mmHg 96%
08:00 +3°C° 0 mm 1 m/s 648 mmHg 95%
09:00 +3°C° 0 mm 1 m/s 648 mmHg 95%
10:00 +4°C° 0 mm 1 m/s 648 mmHg 93%
11:00 +5°C° 0 mm 1 m/s 648 mmHg 90%
12:00 +4°C° 0 mm 2 m/s 649 mmHg 88%
13:00 +4°C° 0 mm 2 m/s 648 mmHg 87%
14:00 +4°C° 0 mm 2 m/s 648 mmHg 86%
15:00 +4°C° 0 mm 3 m/s 647 mmHg 85%
16:00 +4°C° 0.3 mm 2 m/s 647 mmHg 88%
17:00 +3°C° 0.3 mm 2 m/s 647 mmHg 91%
18:00 +4°C° 0.3 mm 1 m/s 647 mmHg 93%
19:00 +4°C° 0.7 mm 1 m/s 647 mmHg 95%
20:00 +4°C° 0.7 mm 1 m/s 647 mmHg 96%
21:00 +4°C° 0.7 mm 1 m/s 647 mmHg 97%
22:00 +4°C° 0.1 mm 1 m/s 647 mmHg 97%
23:00 +3°C° 0.1 mm 1 m/s 647 mmHg 98%

Depois de amanhã, 22 Janeiro, Sexta-feira

Tempo Temperatura Precipitação Vento Pressão Humidade
00:00 +3°C° 0.1 mm 1 m/s 646 mmHg 98%
01:00 +3°C° 0.1 mm 1 m/s 646 mmHg 98%
02:00 +3°C° 0.1 mm 1 m/s 646 mmHg 98%
03:00 +3°C° 0.1 mm 1 m/s 645 mmHg 97%
04:00 +3°C° 0.8 mm 1 m/s 645 mmHg 98%
05:00 +3°C° 0.8 mm 1 m/s 644 mmHg 98%
06:00 +3°C° 0.8 mm 1 m/s 643 mmHg 98%
07:00 +3°C° 2.3 mm 2 m/s 643 mmHg 98%
08:00 +2°C° 2.3 mm 3 m/s 642 mmHg 98%
09:00 +2°C° 2.3 mm 3 m/s 641 mmHg 98%
10:00 +1°C° 2.3 mm 4 m/s 641 mmHg 94%
11:00 +1°C° 2.3 mm 5 m/s 641 mmHg 90%
12:00 +1°C° 2.3 mm 5 m/s 641 mmHg 86%
13:00 +1°C° 0.2 mm 5 m/s 642 mmHg 85%
14:00 +1°C° 0.2 mm 5 m/s 642 mmHg 83%
15:00 +1°C° 0.2 mm 5 m/s 643 mmHg 81%
16:00 0°C° 0.1 mm 4 m/s 643 mmHg 84%
17:00 0°C° 0.1 mm 3 m/s 643 mmHg 86%
18:00 -1°C° 0.1 mm 2 m/s 644 mmHg 89%
19:00 -2°C° 0 mm 2 m/s 644 mmHg 88%
20:00 -3°C° 0 mm 2 m/s 644 mmHg 87%
21:00 -4°C° 0 mm 2 m/s 644 mmHg 86%
22:00 -4°C° 0 mm 2 m/s 644 mmHg 85%
23:00 -5°C° 0 mm 2 m/s 644 mmHg 83%

23 Janeiro, Sábado

Tempo Temperatura Precipitação Vento Pressão Humidade
00:00 -3°C° 0 mm 1 m/s 644 mmHg 81%
01:00 -3°C° 0.1 mm 1 m/s 644 mmHg 85%
02:00 -2°C° 0.1 mm 1 m/s 644 mmHg 88%
03:00 -2°C° 0.1 mm 1 m/s 644 mmHg 91%
04:00 -2°C° 0 mm 1 m/s 644 mmHg 92%
05:00 -3°C° 0 mm 1 m/s 644 mmHg 93%
06:00 -3°C° 0 mm 1 m/s 644 mmHg 94%
07:00 -4°C° 0.1 mm 2 m/s 644 mmHg 93%
08:00 -3°C° 0.1 mm 2 m/s 644 mmHg 92%
09:00 -2°C° 0.1 mm 2 m/s 645 mmHg 91%
10:00 -1°C° 0.1 mm 3 m/s 645 mmHg 84%
11:00 -1°C° 0.1 mm 4 m/s 646 mmHg 77%
12:00 +1°C° 0.1 mm 5 m/s 646 mmHg 69%
13:00 +1°C° 0 mm 5 m/s 647 mmHg 67%
14:00 +1°C° 0 mm 4 m/s 647 mmHg 65%
15:00 +1°C° 0 mm 4 m/s 647 mmHg 64%
16:00 +1°C° 0 mm 3 m/s 646 mmHg 72%
17:00 -1°C° 0 mm 2 m/s 645 mmHg 81%
18:00 -1°C° 0 mm 1 m/s 645 mmHg 89%
19:00 -1°C° 0.3 mm 1 m/s 645 mmHg 91%
20:00 -1°C° 0.3 mm 1 m/s 644 mmHg 93%
21:00 0°C° 0.3 mm 1 m/s 644 mmHg 95%
22:00 0°C° 0.9 mm 1 m/s 643 mmHg 96%
23:00 -1°C° 0.9 mm 0 m/s 643 mmHg 97%

24 Janeiro, Domingo

Tempo Temperatura Precipitação Vento Pressão Humidade
00:00 -1°C° 0.9 mm 0 m/s 642 mmHg 97%
01:00 0°C° 0.5 mm 0 m/s 642 mmHg 98%
02:00 +1°C° 0.5 mm 1 m/s 641 mmHg 98%
03:00 +1°C° 0.5 mm 1 m/s 641 mmHg 98%
04:00 +1°C° 0.5 mm 1 m/s 641 mmHg 97%
05:00 -1°C° 0.5 mm 2 m/s 642 mmHg 96%
06:00 +1°C° 0.5 mm 2 m/s 642 mmHg 96%
07:00 -1°C° 0 mm 2 m/s 643 mmHg 91%
08:00 -1°C° 0 mm 2 m/s 644 mmHg 87%
09:00 -1°C° 0 mm 2 m/s 645 mmHg 83%
10:00 +1°C° 0 mm 2 m/s 646 mmHg 76%
11:00 +3°C° 0 mm 2 m/s 647 mmHg 70%
12:00 +4°C° 0 mm 2 m/s 648 mmHg 63%
13:00 +3°C° 0 mm 3 m/s 648 mmHg 63%
14:00 +3°C° 0 mm 3 m/s 648 mmHg 64%
15:00 +3°C° 0 mm 3 m/s 648 mmHg 64%
16:00 +1°C° 0 mm 3 m/s 648 mmHg 70%
17:00 -1°C° 0 mm 2 m/s 648 mmHg 77%
18:00 -3°C° 0 mm 2 m/s 648 mmHg 83%
19:00 -3°C° 0 mm 2 m/s 648 mmHg 83%
20:00 -4°C° 0 mm 2 m/s 648 mmHg 83%
21:00 -4°C° 0 mm 2 m/s 649 mmHg 83%
22:00 -4°C° 0 mm 2 m/s 649 mmHg 82%
23:00 -4°C° 0 mm 2 m/s 649 mmHg 81%

25 Janeiro, Segunda-feira

Tempo Temperatura Precipitação Vento Pressão Humidade
00:00 -4°C° 0 mm 2 m/s 649 mmHg 81%
01:00 -4°C° 0 mm 2 m/s 649 mmHg 81%
02:00 -5°C° 0 mm 2 m/s 649 mmHg 81%
03:00 -5°C° 0 mm 2 m/s 649 mmHg 82%
04:00 -5°C° 0 mm 2 m/s 650 mmHg 81%
05:00 -5°C° 0 mm 2 m/s 650 mmHg 81%
06:00 -5°C° 0 mm 2 m/s 650 mmHg 81%
07:00 -4°C° 0 mm 2 m/s 651 mmHg 78%
08:00 -1°C° 0 mm 1 m/s 652 mmHg 76%
09:00 0°C° 0 mm 1 m/s 653 mmHg 73%
10:00 +2°C° 0 mm 1 m/s 654 mmHg 68%
11:00 +3°C° 0 mm 1 m/s 655 mmHg 64%
12:00 +4°C° 0 mm 2 m/s 655 mmHg 60%
13:00 +4°C° 0 mm 2 m/s 655 mmHg 61%
14:00 +4°C° 0 mm 2 m/s 655 mmHg 62%
15:00 +4°C° 0 mm 2 m/s 655 mmHg 63%
16:00 +2°C° 0 mm 2 m/s 655 mmHg 69%
17:00 +1°C° 0 mm 2 m/s 655 mmHg 75%
18:00 -2°C° 0 mm 2 m/s 655 mmHg 80%
19:00 -3°C° 0 mm 2 m/s 655 mmHg 80%
20:00 -3°C° 0 mm 2 m/s 655 mmHg 80%
21:00 -4°C° 0 mm 2 m/s 656 mmHg 80%
22:00 -4°C° 0 mm 2 m/s 656 mmHg 79%
23:00 -4°C° 0 mm 2 m/s 656 mmHg 79%
Mostrar mais